Tümü
Alfred Hospital Heliport Airport (Alfred, Victoria) YAFD Hava Durumu
There is no TAF data available at YAFD. Showing TAF data for YMEN (9 mi KB).
MEB Terminal Alanı Tahmini (YAFD için veri yok)
| Here is the undecoded forecast: 2026/09/01 05:14 YMEN 010514Z 0106/0118 36018G28KT CAVOK FM010700 34012KT CAVOK FM010900 30010KT 9999 -RA NSC FM011700 24008KT 9999 -SHRA SCT012 BKN025 TEMPO 0117/0118 4000 SHRA FEW006 BKN012 RMK FM010600 MOD TURB BLW 5000FT TL011100 T 21 18 16 15 Q 1012 1011 1013 1012 |
There is no METAR data available at YAFD. Showing METAR data for YMEN (9 mi KB).
Yakın zamandaki MEB METAR geçmişi (YAFD verisi yok)
| Date | Time (AEST) | Flight Rules | Wind Dir. | Speed | Type | Height AGL (ft) | Visibility | Temp (°C) | Temp (°F) | Dew Point (°C) | Dew Point (°F) | Rel. Humid. | Pressure | Density Altitude | Remarks |
|---|---|---|---|---|---|---|---|---|---|---|---|---|---|---|---|
| 01-Eyl | 18:00 | VFR | 360° | 12 kt | Overcast |
8.900 |
10000 meters | 19° | 66° | 8° | 46° | 49% | 1013 mb | 768 ft | |
| 01-Eyl | 17:00 | VFR | 350° | 16 kt | 10000 meters | 20° | 68° | 7° | 44° | 43% | 1013 mb | 888 ft | |||
| 01-Eyl | 16:00 | VFR | 350° | 16 kt | 10000 meters | 20° | 68° | 7° | 44° | 43% | 1013 mb | 888 ft | |||
| 01-Eyl | 15:00 | VFR | 350° | 23 kt | 10000 meters | 21° | 69° | 7° | 44° | 40% | 1013 mb | 1.008 ft | |||
| 01-Eyl | 14:03 | VFR | 350° | 21 kt | 10000 meters | 21° | 69° | 8° | 46° | 43% | 1014 mb | 979 ft | Wind gusting to 31 KT | ||
| 01-Eyl | 13:00 | VFR | 350° | 19 kt | 10000 meters | 21° | 69° | 7° | 44° | 40% | 1015 mb | 949 ft | |||
| 01-Eyl | 12:00 | VFR | 350° | 22 kt | 10000 meters | 21° | 69° | 7° | 44° | 40% | 1017 mb | 890 ft | |||
| 01-Eyl | 11:04 | VFR | 360° | 17 kt | 10000 meters | 19° | 66° | 9° | 48° | 52% | 1017 mb | 650 ft | Wind gusting to 31 KT | ||
| 01-Eyl | 10:05 | VFR | 10° | 21 kt | 10000 meters | 17° | 62° | 9° | 48° | 59% | 1018 mb | 380 ft | Wind gusting to 34 KT | ||
| 01-Eyl | 09:00 | VFR | 20° | 15 kt | 10000 meters | 15° | 59° | 10° | 50° | 72% | 1020 mb | 81 ft | |||
| 01-Eyl | 08:00 | VFR | 360° | 13 kt | 10000 meters | 14° | 57° | 10° | 50° | 77% | 1021 mb | -68 ft | |||
| 01-Eyl | 07:00 | VFR | 10° | 13 kt | 10000 meters | 12° | 53° | 10° | 50° | 88% | 1020 mb | -279 ft | |||
| 01-Eyl | 06:00 | VFR | 10° | 12 kt | 10000 meters | 13° | 55° | 10° | 50° | 82% | 1020 mb | -159 ft | |||
| 01-Eyl | 05:00 | VFR | 20° | 12 kt | 10000 meters | 13° | 55° | 11° | 51° | 88% | 1021 mb | -188 ft | |||
| 01-Eyl | 04:00 | VFR | 360° | 13 kt | 10000 meters | 13° | 55° | 11° | 51° | 88% | 1021 mb | -188 ft | |||
| 01-Eyl | 03:00 | VFR | 360° | 11 kt | 10000 meters | 13° | 55° | 11° | 51° | 88% | 1022 mb | -218 ft | |||
| 01-Eyl | 02:00 | VFR | 360° | 7 kt | 10000 meters | 13° | 55° | 11° | 51° | 88% | 1023 mb | -247 ft | |||
| 01-Eyl | 01:00 | VFR | 360° | 9 kt | 10000 meters | 13° | 55° | 10° | 50° | 82% | 1023 mb | -247 ft | |||
| 01-Eyl | 00:00 | VFR | 360° | 12 kt | 10000 meters | 13° | 55° | 10° | 50° | 82% | 1024 mb | -277 ft | |||
| 31-Ağu | 23:00 | VFR | 360° | 10 kt | 10000 meters | 12° | 53° | 9° | 48° | 82% | 1025 mb | -426 ft | |||
| 31-Ağu | 22:00 | VFR | 360° | 9 kt | 10000 meters | 13° | 55° | 8° | 46° | 72% | 1026 mb | -336 ft | |||
| 31-Ağu | 21:00 | VFR | 190° | 4 kt | 10000 meters | 12° | 53° | 9° | 48° | 82% | 1026 mb | -456 ft | |||
| 31-Ağu | 20:00 | VFR | Calm | 10000 meters | 12° | 53° | 8° | 46° | 76% | 1026 mb | -456 ft | ||||
| 31-Ağu | 19:00 | VFR | 190° | 3 kt | 10000 meters | 12° | 53° | 8° | 46° | 76% | 1027 mb | -485 ft |
Giriş
| Tarayıcınız desteklenmiyor. tarayıcınızı yükseltin |
